Aviation Digital Data Service (ADDS)

Output produced by METARs form (0307 UTC 16 August 2018)
found at http://www.aviationweather.gov/adds/metars/
 
DNAA 160200Z VRB02KT 9999 BKN008 24/21 Q1016 NOSIG
TAF DNAA 151540Z 1518/1624 17005KT 9999 TS SCT011 FEW019CB 
     TEMPO 1518/1522 10016KT 5000 -TSRA BKN008 
     BECMG 1522/1524 NSW FEW008
       
DNAA 160200Z VRB02KT 9999 BKN008 24/21 Q1016 NOSIG
TAF DNAA 151540Z 1518/1624 17005KT 9999 TS SCT011 FEW019CB 
     TEMPO 1518/1522 10016KT 5000 -TSRA BKN008 
     BECMG 1522/1524 NSW FEW008
       
TAF DNAK 152150Z 1600/1706 VRB02KT 8000 FEW009 
     TEMPO 1605/1607 5000 BR 
     BECMG 1608/1610 25010KT BKN013 
     TEMPO 1612/1617 BKN013 FEW020CB
       
TAF DNBE 152150Z 1600/1706 VRB02KT 8000 FEW009 
     TEMPO 1605/1607 3000 BR 
     BECMG 1608/1610 24010KT BKN012 FEW020CB
       
TAF DNCA 152145Z 1600/1706 00000KT 7000 BKN008 
     TEMPO 1602/1607 5000 -RA BR 
     BECMG 1608/1610 23008KT BKN010 FEW020CB
       
DNEN 152300Z VRB02KT 9999 FEW009 26/24 Q1016
TAF DNEN 152145Z 1600/1706 26006KT 8000 SCT009 FEW020CB 
     TEMPO 1600/1604 5000 -TSRA BKN008 FEW020CB 
     BECMG 1608/1610 BKN011
       
TAF DNGO 152140Z 1600/1706 27008KT CAVOK 
     BECMG 1610/1612 SCT014 
     TEMPO 1515/1619 05016KT 5000 -TSRA BKN012
       
TAF DNIB 152150Z 1600/1706 VRB02KT 8000 FEW009 
     TEMPO 1605/1607 5000 BR 
     BECMG 1608/1610 22010KT BKN013 
     TEMPO 1612/1617 BKN013 FEW020CB
       
TAF DNIL 152140Z 1600/1706 18005KT CAVOK 
     BECMG 1607/1609 24010KT BKN010 
     PROB30 
     TEMPO 1614/1619 TS FEW020CB 
     BECMG 1619/1621 FEW008
       
TAF DNIM 152145Z 1600/1706 VRB02KT 8000 BKN009 
     TEMPO 1601/1605 5000 -RA BR 
     BECMG 1608/1610 25010KT BKN011
       
TAF DNJO 152140Z 1600/1706 19002KT 9999 BKN005 
     PROB30 
     TEMPO 1603/1607 5000 BR BKN003 
     BECMG 1607/1609 26010KT BKN006 
     BECMG 1612/1614 BKN010 
     PROB30 1614/1618 5000 -TSRA BKN007 FEW018CB 
     BECMG 1618/1620 FEW005
       
TAF DNKA 152140Z 1600/1706 18003KT 9999 SCT007 
     BECMG 1608/1610 27010KT BKN010 
     BECMG 1612/1614 SCT012 
     PROB30 
     TEMPO 1615/1620 TS FEW020CB 
     BECMG 1620/1622 FEW009
       
DNKN 160200Z 24004KT CAVOK 25/23 Q1017 NOSIG
TAF DNKN 152140Z 1600/1706 26008KT CAVOK 
     TEMPO 1610/1614 BKN015 
     TEMPO 1616/1620 TS FEW020CB
       
TAF DNKT 152140Z 1600/1706 27010KT CAVOK 
     BECMG 1610/1614 BKN015 
     TEMPO 1615/1619 TS FEW020CB
       
TAF DNMA 152140Z 1600/1706 28010KT CAVOK 
     TEMPO 1611/1615 BKN015 FEW022CB 
     TEMPO 1616/1620 TS FEW019CB
       
DNMM 160200Z VRB02KT 9999 FEW008 24/23 Q1016 NOSIG
TAF DNMM 152150Z 1600/1706 VRB02KT 8000 FEW009 
     PROB30 
     TEMPO 1604/1608 5000 -RA BKN009 FEW0019CB 
     BECMG 1609/1611 20010KT BKN013 
     TEMPO 1613/1618 BKN013 FEW020CB
       
DNMN 160200Z 23006KT 9999 TS FEW010 FEW020CB 26/24 Q1011
TAF DNMN 152140Z 1600/1706 19006KT CAVOK 
     PROB30 
     TEMPO 1600/1606 11014KT 5000 -TSRA BKN009 FEW019CB 
     BECMG 1608/1610 24010KT BKN010 
     BECMG 1612/1612 BKN012 
     PROB30 
     TEMPO 1616/1621 TS FEW020CB 
     BECMG 1621/1623 FEW009
       
DNPO 160000Z VRB02KT 8000 SCT008 24/23 Q1015 NOSIG
TAF DNPO 152145Z 1600/1706 VRB02KT 8000 SCT008 
     TEMPO 1603/1607 5000 -RA BKN008 
     BECMG 1608/1610 24008KT BKN010 FEW020CB
       
TAF DNSO 152140Z 1600/1706 26010KT CAVOK 
     TEMPO 1612/1616 BKN015 FEW022CB
       
TAF DNYO 152140Z 1600/1706 25006KT CAVOK 
     BECMG 1610/1612 SCT014 
     TEMPO 1614/1619 06010G30KT 5000 TSRA BJN010 FEW019CB
       
TAF DNAK 152150Z 1600/1706 VRB02KT 8000 FEW009 
     TEMPO 1605/1607 5000 BR 
     BECMG 1608/1610 25010KT BKN013 
     TEMPO 1612/1617 BKN013 FEW020CB
       
DNAA 160200Z VRB02KT 9999 BKN008 24/21 Q1016 NOSIG
TAF DNAA 151540Z 1518/1624 17005KT 9999 TS SCT011 FEW019CB 
     TEMPO 1518/1522 10016KT 5000 -TSRA BKN008 
     BECMG 1522/1524 NSW FEW008
       
TAF DNAK 152150Z 1600/1706 VRB02KT 8000 FEW009 
     TEMPO 1605/1607 5000 BR 
     BECMG 1608/1610 25010KT BKN013 
     TEMPO 1612/1617 BKN013 FEW020CB
       
TAF DNBE 152150Z 1600/1706 VRB02KT 8000 FEW009 
     TEMPO 1605/1607 3000 BR 
     BECMG 1608/1610 24010KT BKN012 FEW020CB
       
TAF DNCA 152145Z 1600/1706 00000KT 7000 BKN008 
     TEMPO 1602/1607 5000 -RA BR 
     BECMG 1608/1610 23008KT BKN010 FEW020CB
       
DNEN 152300Z VRB02KT 9999 FEW009 26/24 Q1016
TAF DNEN 152145Z 1600/1706 26006KT 8000 SCT009 FEW020CB 
     TEMPO 1600/1604 5000 -TSRA BKN008 FEW020CB 
     BECMG 1608/1610 BKN011
       
TAF DNGO 152140Z 1600/1706 27008KT CAVOK 
     BECMG 1610/1612 SCT014 
     TEMPO 1515/1619 05016KT 5000 -TSRA BKN012
       
TAF DNIB 152150Z 1600/1706 VRB02KT 8000 FEW009 
     TEMPO 1605/1607 5000 BR 
     BECMG 1608/1610 22010KT BKN013 
     TEMPO 1612/1617 BKN013 FEW020CB
       
TAF DNIL 152140Z 1600/1706 18005KT CAVOK 
     BECMG 1607/1609 24010KT BKN010 
     PROB30 
     TEMPO 1614/1619 TS FEW020CB 
     BECMG 1619/1621 FEW008
       
TAF DNIM 152145Z 1600/1706 VRB02KT 8000 BKN009 
     TEMPO 1601/1605 5000 -RA BR 
     BECMG 1608/1610 25010KT BKN011
       
TAF DNJO 152140Z 1600/1706 19002KT 9999 BKN005 
     PROB30 
     TEMPO 1603/1607 5000 BR BKN003 
     BECMG 1607/1609 26010KT BKN006 
     BECMG 1612/1614 BKN010 
     PROB30 1614/1618 5000 -TSRA BKN007 FEW018CB 
     BECMG 1618/1620 FEW005
       
TAF DNKA 152140Z 1600/1706 18003KT 9999 SCT007 
     BECMG 1608/1610 27010KT BKN010 
     BECMG 1612/1614 SCT012 
     PROB30 
     TEMPO 1615/1620 TS FEW020CB 
     BECMG 1620/1622 FEW009
       
DNKN 160200Z 24004KT CAVOK 25/23 Q1017 NOSIG
TAF DNKN 152140Z 1600/1706 26008KT CAVOK 
     TEMPO 1610/1614 BKN015 
     TEMPO 1616/1620 TS FEW020CB
       
TAF DNKT 152140Z 1600/1706 27010KT CAVOK 
     BECMG 1610/1614 BKN015 
     TEMPO 1615/1619 TS FEW020CB
       
TAF DNMA 152140Z 1600/1706 28010KT CAVOK 
     TEMPO 1611/1615 BKN015 FEW022CB 
     TEMPO 1616/1620 TS FEW019CB
       
DNMM 160200Z VRB02KT 9999 FEW008 24/23 Q1016 NOSIG
TAF DNMM 152150Z 1600/1706 VRB02KT 8000 FEW009 
     PROB30 
     TEMPO 1604/1608 5000 -RA BKN009 FEW0019CB 
     BECMG 1609/1611 20010KT BKN013 
     TEMPO 1613/1618 BKN013 FEW020CB
       
DNMN 160200Z 23006KT 9999 TS FEW010 FEW020CB 26/24 Q1011
TAF DNMN 152140Z 1600/1706 19006KT CAVOK 
     PROB30 
     TEMPO 1600/1606 11014KT 5000 -TSRA BKN009 FEW019CB 
     BECMG 1608/1610 24010KT BKN010 
     BECMG 1612/1612 BKN012 
     PROB30 
     TEMPO 1616/1621 TS FEW020CB 
     BECMG 1621/1623 FEW009
       
DNPO 160000Z VRB02KT 8000 SCT008 24/23 Q1015 NOSIG
TAF DNPO 152145Z 1600/1706 VRB02KT 8000 SCT008 
     TEMPO 1603/1607 5000 -RA BKN008 
     BECMG 1608/1610 24008KT BKN010 FEW020CB
       
TAF DNSO 152140Z 1600/1706 26010KT CAVOK 
     TEMPO 1612/1616 BKN015 FEW022CB
       
TAF DNYO 152140Z 1600/1706 25006KT CAVOK 
     BECMG 1610/1612 SCT014 
     TEMPO 1614/1619 06010G30KT 5000 TSRA BJN010 FEW019CB
       
TAF DNBE 152150Z 1600/1706 VRB02KT 8000 FEW009 
     TEMPO 1605/1607 3000 BR 
     BECMG 1608/1610 24010KT BKN012 FEW020CB
       
TAF DNCA 152145Z 1600/1706 00000KT 7000 BKN008 
     TEMPO 1602/1607 5000 -RA BR 
     BECMG 1608/1610 23008KT BKN010 FEW020CB
       
DNAA 160200Z VRB02KT 9999 BKN008 24/21 Q1016 NOSIG
TAF DNAA 151540Z 1518/1624 17005KT 9999 TS SCT011 FEW019CB 
     TEMPO 1518/1522 10016KT 5000 -TSRA BKN008 
     BECMG 1522/1524 NSW FEW008
       
TAF DNAK 152150Z 1600/1706 VRB02KT 8000 FEW009 
     TEMPO 1605/1607 5000 BR 
     BECMG 1608/1610 25010KT BKN013 
     TEMPO 1612/1617 BKN013 FEW020CB
       
TAF DNBE 152150Z 1600/1706 VRB02KT 8000 FEW009 
     TEMPO 1605/1607 3000 BR 
     BECMG 1608/1610 24010KT BKN012 FEW020CB
       
TAF DNCA 152145Z 1600/1706 00000KT 7000 BKN008 
     TEMPO 1602/1607 5000 -RA BR 
     BECMG 1608/1610 23008KT BKN010 FEW020CB
       
DNEN 152300Z VRB02KT 9999 FEW009 26/24 Q1016
TAF DNEN 152145Z 1600/1706 26006KT 8000 SCT009 FEW020CB 
     TEMPO 1600/1604 5000 -TSRA BKN008 FEW020CB 
     BECMG 1608/1610 BKN011
       
TAF DNGO 152140Z 1600/1706 27008KT CAVOK 
     BECMG 1610/1612 SCT014 
     TEMPO 1515/1619 05016KT 5000 -TSRA BKN012
       
TAF DNIB 152150Z 1600/1706 VRB02KT 8000 FEW009 
     TEMPO 1605/1607 5000 BR 
     BECMG 1608/1610 22010KT BKN013 
     TEMPO 1612/1617 BKN013 FEW020CB
       
TAF DNIL 152140Z 1600/1706 18005KT CAVOK 
     BECMG 1607/1609 24010KT BKN010 
     PROB30 
     TEMPO 1614/1619 TS FEW020CB 
     BECMG 1619/1621 FEW008
       
TAF DNIM 152145Z 1600/1706 VRB02KT 8000 BKN009 
     TEMPO 1601/1605 5000 -RA BR 
     BECMG 1608/1610 25010KT BKN011
       
TAF DNJO 152140Z 1600/1706 19002KT 9999 BKN005 
     PROB30 
     TEMPO 1603/1607 5000 BR BKN003 
     BECMG 1607/1609 26010KT BKN006 
     BECMG 1612/1614 BKN010 
     PROB30 1614/1618 5000 -TSRA BKN007 FEW018CB 
     BECMG 1618/1620 FEW005
       
TAF DNKA 152140Z 1600/1706 18003KT 9999 SCT007 
     BECMG 1608/1610 27010KT BKN010 
     BECMG 1612/1614 SCT012 
     PROB30 
     TEMPO 1615/1620 TS FEW020CB 
     BECMG 1620/1622 FEW009
       
DNKN 160200Z 24004KT CAVOK 25/23 Q1017 NOSIG
TAF DNKN 152140Z 1600/1706 26008KT CAVOK 
     TEMPO 1610/1614 BKN015 
     TEMPO 1616/1620 TS FEW020CB
       
TAF DNKT 152140Z 1600/1706 27010KT CAVOK 
     BECMG 1610/1614 BKN015 
     TEMPO 1615/1619 TS FEW020CB
       
TAF DNMA 152140Z 1600/1706 28010KT CAVOK 
     TEMPO 1611/1615 BKN015 FEW022CB 
     TEMPO 1616/1620 TS FEW019CB
       
DNMM 160200Z VRB02KT 9999 FEW008 24/23 Q1016 NOSIG
TAF DNMM 152150Z 1600/1706 VRB02KT 8000 FEW009 
     PROB30 
     TEMPO 1604/1608 5000 -RA BKN009 FEW0019CB 
     BECMG 1609/1611 20010KT BKN013 
     TEMPO 1613/1618 BKN013 FEW020CB
       
DNMN 160200Z 23006KT 9999 TS FEW010 FEW020CB 26/24 Q1011
TAF DNMN 152140Z 1600/1706 19006KT CAVOK 
     PROB30 
     TEMPO 1600/1606 11014KT 5000 -TSRA BKN009 FEW019CB 
     BECMG 1608/1610 24010KT BKN010 
     BECMG 1612/1612 BKN012 
     PROB30 
     TEMPO 1616/1621 TS FEW020CB 
     BECMG 1621/1623 FEW009
       
DNPO 160000Z VRB02KT 8000 SCT008 24/23 Q1015 NOSIG
TAF DNPO 152145Z 1600/1706 VRB02KT 8000 SCT008 
     TEMPO 1603/1607 5000 -RA BKN008 
     BECMG 1608/1610 24008KT BKN010 FEW020CB
       
TAF DNSO 152140Z 1600/1706 26010KT CAVOK 
     TEMPO 1612/1616 BKN015 FEW022CB
       
TAF DNYO 152140Z 1600/1706 25006KT CAVOK 
     BECMG 1610/1612 SCT014 
     TEMPO 1614/1619 06010G30KT 5000 TSRA BJN010 FEW019CB
       
DNEN 152300Z VRB02KT 9999 FEW009 26/24 Q1016
TAF DNEN 152145Z 1600/1706 26006KT 8000 SCT009 FEW020CB 
     TEMPO 1600/1604 5000 -TSRA BKN008 FEW020CB 
     BECMG 1608/1610 BKN011
       
DNAA 160200Z VRB02KT 9999 BKN008 24/21 Q1016 NOSIG
TAF DNAA 151540Z 1518/1624 17005KT 9999 TS SCT011 FEW019CB 
     TEMPO 1518/1522 10016KT 5000 -TSRA BKN008 
     BECMG 1522/1524 NSW FEW008
       
TAF DNAK 152150Z 1600/1706 VRB02KT 8000 FEW009 
     TEMPO 1605/1607 5000 BR 
     BECMG 1608/1610 25010KT BKN013 
     TEMPO 1612/1617 BKN013 FEW020CB
       
TAF DNBE 152150Z 1600/1706 VRB02KT 8000 FEW009 
     TEMPO 1605/1607 3000 BR 
     BECMG 1608/1610 24010KT BKN012 FEW020CB
       
TAF DNCA 152145Z 1600/1706 00000KT 7000 BKN008 
     TEMPO 1602/1607 5000 -RA BR 
     BECMG 1608/1610 23008KT BKN010 FEW020CB
       
DNEN 152300Z VRB02KT 9999 FEW009 26/24 Q1016
TAF DNEN 152145Z 1600/1706 26006KT 8000 SCT009 FEW020CB 
     TEMPO 1600/1604 5000 -TSRA BKN008 FEW020CB 
     BECMG 1608/1610 BKN011
       
TAF DNGO 152140Z 1600/1706 27008KT CAVOK 
     BECMG 1610/1612 SCT014 
     TEMPO 1515/1619 05016KT 5000 -TSRA BKN012
       
TAF DNIB 152150Z 1600/1706 VRB02KT 8000 FEW009 
     TEMPO 1605/1607 5000 BR 
     BECMG 1608/1610 22010KT BKN013 
     TEMPO 1612/1617 BKN013 FEW020CB
       
TAF DNIL 152140Z 1600/1706 18005KT CAVOK 
     BECMG 1607/1609 24010KT BKN010 
     PROB30 
     TEMPO 1614/1619 TS FEW020CB 
     BECMG 1619/1621 FEW008
       
TAF DNIM 152145Z 1600/1706 VRB02KT 8000 BKN009 
     TEMPO 1601/1605 5000 -RA BR 
     BECMG 1608/1610 25010KT BKN011
       
TAF DNJO 152140Z 1600/1706 19002KT 9999 BKN005 
     PROB30 
     TEMPO 1603/1607 5000 BR BKN003 
     BECMG 1607/1609 26010KT BKN006 
     BECMG 1612/1614 BKN010 
     PROB30 1614/1618 5000 -TSRA BKN007 FEW018CB 
     BECMG 1618/1620 FEW005
       
TAF DNKA 152140Z 1600/1706 18003KT 9999 SCT007 
     BECMG 1608/1610 27010KT BKN010 
     BECMG 1612/1614 SCT012 
     PROB30 
     TEMPO 1615/1620 TS FEW020CB 
     BECMG 1620/1622 FEW009
       
DNKN 160200Z 24004KT CAVOK 25/23 Q1017 NOSIG
TAF DNKN 152140Z 1600/1706 26008KT CAVOK 
     TEMPO 1610/1614 BKN015 
     TEMPO 1616/1620 TS FEW020CB
       
TAF DNKT 152140Z 1600/1706 27010KT CAVOK 
     BECMG 1610/1614 BKN015 
     TEMPO 1615/1619 TS FEW020CB
       
TAF DNMA 152140Z 1600/1706 28010KT CAVOK 
     TEMPO 1611/1615 BKN015 FEW022CB 
     TEMPO 1616/1620 TS FEW019CB
       
DNMM 160200Z VRB02KT 9999 FEW008 24/23 Q1016 NOSIG
TAF DNMM 152150Z 1600/1706 VRB02KT 8000 FEW009 
     PROB30 
     TEMPO 1604/1608 5000 -RA BKN009 FEW0019CB 
     BECMG 1609/1611 20010KT BKN013 
     TEMPO 1613/1618 BKN013 FEW020CB
       
DNMN 160200Z 23006KT 9999 TS FEW010 FEW020CB 26/24 Q1011
TAF DNMN 152140Z 1600/1706 19006KT CAVOK 
     PROB30 
     TEMPO 1600/1606 11014KT 5000 -TSRA BKN009 FEW019CB 
     BECMG 1608/1610 24010KT BKN010 
     BECMG 1612/1612 BKN012 
     PROB30 
     TEMPO 1616/1621 TS FEW020CB 
     BECMG 1621/1623 FEW009
       
DNPO 160000Z VRB02KT 8000 SCT008 24/23 Q1015 NOSIG
TAF DNPO 152145Z 1600/1706 VRB02KT 8000 SCT008 
     TEMPO 1603/1607 5000 -RA BKN008 
     BECMG 1608/1610 24008KT BKN010 FEW020CB
       
TAF DNSO 152140Z 1600/1706 26010KT CAVOK 
     TEMPO 1612/1616 BKN015 FEW022CB
       
TAF DNYO 152140Z 1600/1706 25006KT CAVOK 
     BECMG 1610/1612 SCT014 
     TEMPO 1614/1619 06010G30KT 5000 TSRA BJN010 FEW019CB
       
TAF DNIB 152150Z 1600/1706 VRB02KT 8000 FEW009 
     TEMPO 1605/1607 5000 BR 
     BECMG 1608/1610 22010KT BKN013 
     TEMPO 1612/1617 BKN013 FEW020CB
       
TAF DNIL 152140Z 1600/1706 18005KT CAVOK 
     BECMG 1607/1609 24010KT BKN010 
     PROB30 
     TEMPO 1614/1619 TS FEW020CB 
     BECMG 1619/1621 FEW008
       
TAF DNJO 152140Z 1600/1706 19002KT 9999 BKN005 
     PROB30 
     TEMPO 1603/1607 5000 BR BKN003 
     BECMG 1607/1609 26010KT BKN006 
     BECMG 1612/1614 BKN010 
     PROB30 1614/1618 5000 -TSRA BKN007 FEW018CB 
     BECMG 1618/1620 FEW005
       
TAF DNKA 152140Z 1600/1706 18003KT 9999 SCT007 
     BECMG 1608/1610 27010KT BKN010 
     BECMG 1612/1614 SCT012 
     PROB30 
     TEMPO 1615/1620 TS FEW020CB 
     BECMG 1620/1622 FEW009
       
DNKN 160200Z 24004KT CAVOK 25/23 Q1017 NOSIG
TAF DNKN 152140Z 1600/1706 26008KT CAVOK 
     TEMPO 1610/1614 BKN015 
     TEMPO 1616/1620 TS FEW020CB
       
DNMM 160200Z VRB02KT 9999 FEW008 24/23 Q1016 NOSIG
TAF DNMM 152150Z 1600/1706 VRB02KT 8000 FEW009 
     PROB30 
     TEMPO 1604/1608 5000 -RA BKN009 FEW0019CB 
     BECMG 1609/1611 20010KT BKN013 
     TEMPO 1613/1618 BKN013 FEW020CB
       
TAF DNMA 152140Z 1600/1706 28010KT CAVOK 
     TEMPO 1611/1615 BKN015 FEW022CB 
     TEMPO 1616/1620 TS FEW019CB
       
DNMN 160200Z 23006KT 9999 TS FEW010 FEW020CB 26/24 Q1011
TAF DNMN 152140Z 1600/1706 19006KT CAVOK 
     PROB30 
     TEMPO 1600/1606 11014KT 5000 -TSRA BKN009 FEW019CB 
     BECMG 1608/1610 24010KT BKN010 
     BECMG 1612/1612 BKN012 
     PROB30 
     TEMPO 1616/1621 TS FEW020CB 
     BECMG 1621/1623 FEW009
       
DNPO 160000Z VRB02KT 8000 SCT008 24/23 Q1015 NOSIG
TAF DNPO 152145Z 1600/1706 VRB02KT 8000 SCT008 
     TEMPO 1603/1607 5000 -RA BKN008 
     BECMG 1608/1610 24008KT BKN010 FEW020CB
       
TAF DNSO 152140Z 1600/1706 26010KT CAVOK 
     TEMPO 1612/1616 BKN015 FEW022CB
       
TAF DNYO 152140Z 1600/1706 25006KT CAVOK 
     BECMG 1610/1612 SCT014 
     TEMPO 1614/1619 06010G30KT 5000 TSRA BJN010 FEW019CB